Skip Page Navigation
NASA JPL Caltech
NASA Logo - Jet Propulsion Laboratory + View the NASA Portal
+ Center for Near-Earth Object Studies
JPL Home Earth Solar System Stars & Galaxies Technology
JPL Solar System Dynamics
BODIES ORBITS EPHEMERIDES TOOLS PHYSICAL DATA DISCOVERY FAQ SITE MAP
IMPORTANT: The SSD Announcement email list is now available. Major changes are coming in the near future, including possible hostname and/or URL changes. To be notified of such changes, subscribe to this email list.

Please visit this page for more details.


JPL Small-Body Database Browser
Search: [ help ]  
215009 (2008 DR79)
Classification: Main-belt Asteroid          SPK-ID: 2215009
Ephemeris | Orbit Diagram | Orbital Elements | Mission Design | Physical Parameters | Discovery Circumstances | Close-Approach Data ]

[ show orbit diagram ]
Orbital Elements at Epoch 2458600.5 (2019-Apr-27.0) TDB
Reference: JPL 15 (heliocentric ecliptic J2000)
 Element Value Uncertainty (1-sigma)   Units 
e .06744497314548917 5.519e-08  
a 3.140940094026263 3.8481e-08 au
q 2.929099473733072 1.7646e-07 au
i 16.46432114201789 6.2351e-06 deg
node 55.14400074378054 2.0679e-05 deg
peri 356.8869640018274 5.0687e-05 deg
M 103.3092095522675 4.4659e-05 deg
tp 2458017.022054924145
(2017-Sep-20.52205492)
0.00025269 TDB
period 2033.236544327983
5.57
3.7365e-05
1.023e-07
d
yr
n .177057608473679 3.2538e-09 deg/d
Q 3.352780714319455 4.1076e-08 au
  Orbit Determination Parameters
   # obs. used (total)      354  
   data-arc span      6764 days (18.52 yr)  
   first obs. used      2000-09-30  
   last obs. used      2019-04-08  
   planetary ephem.      DE431  
   SB-pert. ephem.      SB431-N16  
   condition code      0  
   norm. resid. RMS      .57243  
   source      ORB  
   producer      Otto Matic  
   solution date      2019-Jul-14 10:50:34  

Additional Information
 Earth MOID = 1.93998 au 
 Jupiter MOID = 2.02455 au 
 T_jup = 3.143 
[ show covariance matrix ]

Ephemeris | Orbit Diagram | Orbital Elements | Mission Design | Physical Parameters | Discovery Circumstances | Close-Approach Data ]

Physical Parameter Table
Parameter Symbol Value Units Sigma Reference Notes
absolute magnitude H 14.8   n/a MPO437029  

215009 (2008 DR79)          Discovered 2008-Feb-29 by CSS at Catalina
Reference: 20090509/Numbers.arcLast Updated: 2009-05-11

[ show close-approach data ]
Alternate Designations
 2008 DR79 = 2000 UQ74 
Ephemeris | Orbit Diagram | Orbital Elements | Mission Design | Physical Parameters | Discovery Circumstances | Close-Approach Data ]
ABOUT SSD CREDITS/AWARDS PRIVACY/COPYRIGHT GLOSSARY LINKS
FirstGov
(server date/time)  
NASA Home Page
Site Manager:   Ryan S. Park
Webmaster  Alan B. Chamberlin